TimeCST,TemperatureF,Dew PointF,Humidity,Sea Level PressureIn,VisibilityMPH,Wind Direction,Wind SpeedMPH,Gust SpeedMPH,PrecipitationIn,Events,Conditions,WindDirDegrees,DateUTC
12:55 AM,2.1,-5.3,71,30.38,10.0,SSE,3.5,-,N/A,,Overcast,160,2013-02-21 06:55:00
1:55 AM,1.9,-5.8,70,30.38,10.0,South,5.8,-,N/A,,Mostly Cloudy,170,2013-02-21 07:55:00
2:55 AM,1.9,-5.8,70,30.39,10.0,SSE,5.8,-,N/A,,Overcast,160,2013-02-21 08:55:00
3:55 AM,1.6,-5.1,74,30.39,10.0,SSE,5.8,-,N/A,,Overcast,150,2013-02-21 09:55:00
4:55 AM,0.7,-5.8,74,30.39,10.0,SE,6.9,-,N/A,,Partly Cloudy,140,2013-02-21 10:55:00
5:55 AM,-1.5,-7.8,75,30.39,10.0,SE,5.8,-,N/A,,Partly Cloudy,140,2013-02-21 11:55:00
6:55 AM,-3.5,-9.2,76,30.37,10.0,SE,6.9,-,N/A,,Clear,140,2013-02-21 12:55:00
7:55 AM,-4.4,-9.8,78,30.38,10.0,SSE,4.6,-,N/A,,Clear,150,2013-02-21 13:55:00
8:55 AM,-2.7,-8.7,76,30.41,10.0,SSE,8.1,-,N/A,,Partly Cloudy,150,2013-02-21 14:55:00
9:55 AM,4.6,-4.9,65,30.41,10.0,SE,9.2,-,N/A,,Partly Cloudy,140,2013-02-21 15:55:00
10:55 AM,8.1,-3.1,60,30.38,10.0,SE,9.2,-,N/A,,Partly Cloudy,140,2013-02-21 16:55:00
11:55 AM,9.7,-0.9,62,30.37,10.0,SSE,10.4,-,N/A,,Partly Cloudy,150,2013-02-21 17:55:00
12:55 PM,12.7,1.9,62,30.37,10.0,South,13.8,-,N/A,,Partly Cloudy,170,2013-02-21 18:55:00
1:55 PM,14.2,3.6,63,30.35,10.0,South,10.4,-,N/A,,Clear,170,2013-02-21 19:55:00
2:55 PM,14.5,4.1,63,30.33,10.0,SE,8.1,-,N/A,,Clear,140,2013-02-21 20:55:00
3:55 PM,14.7,4.3,63,30.32,10.0,SE,5.8,-,N/A,,Partly Cloudy,140,2013-02-21 21:55:00
4:55 PM,15.1,5.9,67,30.31,10.0,ESE,3.5,-,N/A,,Overcast,110,2013-02-21 22:55:00
5:55 PM,15.3,6.1,67,30.30,10.0,SE,3.5,-,N/A,,Mostly Cloudy,130,2013-02-21 23:55:00
6:55 PM,14.9,6.4,69,30.30,10.0,ESE,3.5,-,N/A,,Overcast,110,2013-02-22 00:55:00
7:55 PM,12.0,5.4,75,30.29,10.0,Calm,Calm,-,N/A,,Partly Cloudy,0,2013-02-22 01:55:00
8:55 PM,6.6,1.9,81,30.27,10.0,NW,3.5,-,N/A,,Scattered Clouds,320,2013-02-22 02:55:00
9:20 PM,5.0,-0.4,78,30.27,10.0,NNW,3.5,-,N/A,Snow,Light Snow,340,2013-02-22 03:20:00
9:29 PM,5.0,-0.4,78,30.27,10.0,NNW,4.6,-,N/A,,Scattered Clouds,330,2013-02-22 03:29:00
9:55 PM,4.8,0.5,82,30.26,10.0,North,4.6,-,0.00,,Partly Cloudy,360,2013-02-22 03:55:00
10:55 PM,7.2,2.5,81,30.24,10.0,North,4.6,-,N/A,,Clear,360,2013-02-22 04:55:00
11:55 PM,4.5,0.3,83,30.22,10.0,NNE,4.6,-,N/A,,Clear,20,2013-02-22 05:55:00